User: anonymous   Login
Location: Alta
(39.2070°N, 120.8111°W)
Time: 07:55:13
(UTC+00:00)
Language:

KAITUO 1B - Orbit

View from above orbital plane
View from above orbital plane
View from above satellite
View from above satellite

Ground track
Ground track

The orbit data is extracted from the following two-line orbital elements,

1 40912U 15049P   23090.82707497  .00045990  00000-0  12302-2 0  9990
2 40912  97.4258 107.3918 0009966  18.1106 106.9960 15.37862288417697
Epoch (UTC): 31 March 2023 19:50:59
Eccentricity: 0.0009966
inclination: 97.4258°
perigee height: 445 km
apogee height: 459 km
right ascension of ascending node: 107.3918°
argument of perigee: 18.1106°
revolutions per day: 15.37862288
mean anomaly at epoch: 106.9960°
orbit number at epoch: 41769

The dashed part of the orbit path shows where the satellite is in the earth's shadow,  

DLR